Change the Weather History Date:

Tuesday, September 10, 2013

  Actual Average Record
Temperature  
Mean Temperature 75 °F -  
Max Temperature 84 °F 71 °F 91 °F (2005)
Min Temperature 66 °F 49 °F 37 °F (1989)
Cooling Degree Days 10    
Growing Degree Days 25 (Base 50)    
Moisture  
Dew Point 61 °F    
Average Humidity 66    
Maximum Humidity 78    
Minimum Humidity 48    
Precipitation  
Precipitation 0.00 in - - ()
Sea Level Pressure  
Sea Level Pressure 29.87 in    
Wind  
Wind Speed 5 mph (WSW)    
Max Wind Speed 14 mph    
Max Gust Speed 18 mph    
Visibility 10 miles    
Events      
Averages and records for this station are not official NWS values.
T = Trace of Precipitation, MM = Missing Value Source: NWS Daily Summary

Daily Weather History Graph

Daily Weather History Graph

Search for Another Location

Airport or City:

Trip Planner

Search our weather history database for the weather conditions in past years. The results will help you decide how hot, cold, wet, or windy it might be!

Date:

Astronomy

Sep. 10, 2013 Rise Set
Actual Time 6:45 AM CDT 7:33 PM CDT
Civil Twilight 6:15 AM CDT 8:03 PM CDT
Nautical Twilight 5:39 AM CDT 8:38 PM CDT
Astronomical Twilight 5:02 AM CDT 9:16 PM CDT
Moon 12:29 PM CDT (9/10) 10:18 PM CDT (9/10)
Length of Visible Light 13h 47m
Length of Day
12h 47m
Waxing Crescent, 28% of the Moon is Illuminated
Sep 10
Waxing Crescent
Sep 12
First Quarter
Sep 19
Full
Sep 26
Last Quarter
Oct 4
New

Hourly Weather History & Observations

Time (CDT) Temp. Heat Index Dew Point Humidity Pressure Visibility Wind Dir Wind Speed Gust Speed Precip Events Conditions
12:01 AM 73.4 °F - 66.2 °F 78% 29.74 in 3.0 mi WSW 3.5 mph - N/A   Clear
12:24 AM 73.4 °F - 64.4 °F 73% 29.75 in 4.0 mi SW 3.5 mph - N/A   Clear
12:41 AM 73.4 °F - 64.4 °F 73% 29.75 in 5.0 mi WSW 5.8 mph - N/A   Clear
1:01 AM 73.4 °F - 64.4 °F 73% 29.76 in 7.0 mi SW 3.5 mph - N/A   Clear
1:21 AM 71.6 °F - 62.6 °F 73% 29.76 in 7.0 mi WSW 3.5 mph - N/A   Clear
2:01 AM 71.6 °F - 62.6 °F 73% 29.77 in 10.0 mi West 6.9 mph - N/A   Clear
2:21 AM 71.6 °F - 62.6 °F 73% 29.78 in 10.0 mi West 5.8 mph - N/A   Clear
2:41 AM 71.6 °F - 62.6 °F 73% 29.78 in 10.0 mi West 5.8 mph - N/A   Clear
3:01 AM 69.8 °F - 62.6 °F 78% 29.80 in 10.0 mi West 5.8 mph - N/A   Clear
3:41 AM 71.6 °F - 62.6 °F 73% 29.81 in 10.0 mi SW 3.5 mph - N/A   Clear
4:01 AM 71.6 °F - 62.6 °F 73% 29.79 in 10.0 mi WNW 4.6 mph - N/A   Clear
4:21 AM 71.6 °F - 62.6 °F 73% 29.78 in 10.0 mi West 3.5 mph - N/A   Clear
4:41 AM 69.8 °F - 62.6 °F 78% 29.81 in 10.0 mi SW 4.6 mph - N/A   Clear
5:01 AM 69.8 °F - 62.6 °F 78% 29.81 in 10.0 mi SW 3.5 mph - N/A   Clear
5:21 AM 69.8 °F - 60.8 °F 73% 29.81 in 10.0 mi West 3.5 mph - N/A   Scattered Clouds
5:41 AM 69.8 °F - 60.8 °F 73% 29.83 in 10.0 mi SSW 3.5 mph - N/A   Scattered Clouds
6:01 AM 69.8 °F - 60.8 °F 73% 29.83 in 10.0 mi SW 2.3 mph - N/A   Mostly Cloudy
6:21 AM 69.8 °F - 60.8 °F 73% 29.83 in 10.0 mi SSW 2.3 mph - N/A   Scattered Clouds
7:01 AM 69.8 °F - 60.8 °F 73% 29.87 in 10.0 mi WSW 3.5 mph - N/A   Overcast
7:21 AM 69.8 °F - 60.8 °F 73% 29.86 in 10.0 mi WSW 3.5 mph - N/A   Overcast
7:41 AM 69.8 °F - 60.8 °F 73% 29.86 in 10.0 mi SW 2.3 mph - N/A   Scattered Clouds
8:01 AM 69.8 °F - 60.8 °F 73% 29.86 in 7.0 mi SW 2.3 mph - N/A   Clear
8:21 AM 69.8 °F - 60.8 °F 73% 29.86 in 10.0 mi West 2.3 mph - N/A   Clear
8:41 AM 69.8 °F - 60.8 °F 73% 29.86 in 7.0 mi WSW 2.3 mph - N/A   Clear
9:01 AM 69.8 °F - 60.8 °F 73% 29.86 in 7.0 mi SW 3.5 mph - N/A   Clear
9:21 AM 69.8 °F - 60.8 °F 73% 29.86 in 7.0 mi SSW 4.6 mph - N/A   Clear
9:41 AM 71.6 °F - 62.6 °F 73% 29.87 in 10.0 mi SSW 3.5 mph - N/A   Clear
10:01 AM 69.8 °F - 62.6 °F 78% 29.88 in 10.0 mi WSW 3.5 mph - N/A   Clear
10:21 AM 71.6 °F - 62.6 °F 73% 29.88 in 10.0 mi SSW 2.3 mph - N/A   Clear
10:41 AM 71.6 °F - 62.6 °F 73% 29.89 in 10.0 mi SW 2.3 mph - N/A   Scattered Clouds
11:21 AM 71.6 °F - 62.6 °F 73% 29.89 in 10.0 mi SSW 3.5 mph - N/A   Clear
11:41 AM 71.6 °F - 62.6 °F 73% 29.90 in 10.0 mi South 4.6 mph - N/A   Clear
12:01 PM 73.4 °F - 62.6 °F 69% 29.90 in 10.0 mi SSW 8.1 mph - N/A   Clear
12:21 PM 73.4 °F - 62.6 °F 69% 29.89 in 10.0 mi South 4.6 mph - N/A   Clear
12:41 PM 75.2 °F - 64.4 °F 69% 29.89 in 10.0 mi SSW 8.1 mph - N/A   Clear
1:01 PM 75.2 °F - 64.4 °F 69% 29.89 in 10.0 mi WSW 9.2 mph 17.3 mph N/A   Clear
1:21 PM 78.8 °F - 64.4 °F 61% 29.90 in 10.0 mi SW 6.9 mph - N/A   Clear
1:41 PM 78.8 °F - 64.4 °F 61% 29.89 in 10.0 mi WSW 5.8 mph - N/A   Clear
2:01 PM 80.6 °F 82.3 °F 64.4 °F 58% 29.89 in 10.0 mi West 9.2 mph 17.3 mph N/A   Clear
2:21 PM 82.4 °F 83.9 °F 64.4 °F 54% 29.89 in 10.0 mi SW 6.9 mph - N/A   Clear
2:41 PM 82.4 °F 83.9 °F 64.4 °F 54% 29.88 in 10.0 mi SSW 8.1 mph 16.1 mph N/A   Clear
3:01 PM 84.2 °F 85.6 °F 64.4 °F 51% 29.88 in 10.0 mi SW 6.9 mph - N/A   Clear
3:21 PM 82.4 °F 83.4 °F 62.6 °F 51% 29.88 in 10.0 mi West 11.5 mph - N/A   Clear
3:41 PM 84.2 °F 85.6 °F 64.4 °F 51% 29.88 in 10.0 mi WSW 6.9 mph - N/A   Clear
4:21 PM 84.2 °F 85.6 °F 64.4 °F 51% 29.87 in 10.0 mi SW 13.8 mph 17.3 mph N/A   Scattered Clouds
4:41 PM 84.2 °F 85.0 °F 62.6 °F 48% 29.87 in 10.0 mi WSW 10.4 mph 16.1 mph N/A   Scattered Clouds
5:01 PM 84.2 °F 85.0 °F 62.6 °F 48% 29.87 in 10.0 mi West 11.5 mph 17.3 mph N/A   Scattered Clouds
5:21 PM 84.2 °F 85.0 °F 62.6 °F 48% 29.88 in 10.0 mi West 9.2 mph - N/A   Scattered Clouds
5:41 PM 82.4 °F 83.4 °F 62.6 °F 51% 29.88 in 10.0 mi West 6.9 mph 18.4 mph N/A   Clear
6:01 PM 82.4 °F 83.4 °F 62.6 °F 51% 29.89 in 10.0 mi West 4.6 mph - N/A   Clear
6:21 PM 80.6 °F 81.5 °F 60.8 °F 51% 29.89 in 10.0 mi West 10.4 mph - N/A   Clear
6:41 PM 80.6 °F 81.5 °F 60.8 °F 51% 29.89 in 10.0 mi West 8.1 mph - N/A   Clear
7:01 PM 78.8 °F - 60.8 °F 54% 29.90 in 10.0 mi West 5.8 mph - N/A   Clear
7:21 PM 77.0 °F - 60.8 °F 57% 29.91 in 10.0 mi WNW 3.5 mph - N/A   Clear
7:50 PM 75.2 °F - 60.8 °F 61% 29.92 in 10.0 mi West 8.1 mph - N/A   Clear
7:56 PM 75.2 °F - 60.8 °F 61% 29.92 in 10.0 mi WNW 8.1 mph - N/A   Clear
8:15 PM 73.4 °F - 59.0 °F 61% 29.93 in 10.0 mi West 6.9 mph - N/A   Clear
8:35 PM 71.6 °F - 57.2 °F 60% 29.94 in 10.0 mi WNW 6.9 mph - N/A   Clear
8:55 PM 71.6 °F - 57.2 °F 60% 29.94 in 10.0 mi WNW 6.9 mph - N/A   Clear
9:15 PM 69.8 °F - 57.2 °F 64% 29.95 in 10.0 mi WNW 4.6 mph - N/A   Clear
9:36 PM 69.8 °F - 57.2 °F 64% 29.95 in 10.0 mi WNW 3.5 mph - N/A   Clear
9:55 PM 69.8 °F - 57.2 °F 64% 29.95 in 10.0 mi West 3.5 mph - N/A   Clear
10:15 PM 69.8 °F - 57.2 °F 64% 29.96 in 10.0 mi West 3.5 mph - N/A   Clear
10:36 PM 68.0 °F - 55.4 °F 64% 29.96 in 10.0 mi Calm Calm - N/A   Clear
10:55 PM 68.0 °F - 55.4 °F 64% 29.96 in 10.0 mi Calm Calm - N/A   Clear
11:15 PM 66.2 °F - 55.4 °F 68% 29.97 in 10.0 mi Calm Calm - N/A   Clear
11:35 PM 66.2 °F - 55.4 °F 68% 29.97 in 10.0 mi Calm Calm - N/A   Clear
11:55 PM 66.2 °F - 55.4 °F 68% 29.97 in 10.0 mi Calm Calm - N/A   Clear